ATLAS 5 CENTAUR DEB, 44649

Orbit data source: Space-Track

ATLAS 5 CENTAUR DEB, 44649 is space debris in HEO originally from a launch on Wed, 17 Oct 2018 UTC launched from the Air Force Eastern Test Range (AFETR). Debris objects in space refer to the collection of defunct objects orbiting the Earth. Examples of debris include non-operational satellites, rocket bodies, and fragments generated from explosions, collisions, or faulty payload assembly.

Loading next visibility...
Identifier
44649, 2018-079K
Orbit
HEO
Country
Flag of USUS
Related business
Flag of USUnited Launch Alliance/Lockheed Martin (US)
Manufacturer
ULA Decatur
Mission
Spacecraft
Bus & Motor
Unknown
Mass
Unknown
Launch date (UTC)
2018-10-17 (7 years ago)
Launch vehicle
Unknown
Launch site
Air Force Eastern Test Range (AFETR)
Object type
Payload
Rocket body
Debris
Shape & HBR
Unknown shape, 1.1 m
Radar Cross Section
RCS unknown

Expand to show TLE details & history
Last TLE update: 5 days ago

TLE from 5 days ago
0 ATLAS 5 CENTAUR DEB
1 44649U 18079K   25292.77805703 -.00000103  00000-0  00000-0 0  9994
2 44649  13.0194  48.9749 4711054 290.7352  26.0507  1.83960885 43980
Epoch: 2025-10-19T18:40Z
TLE epoch observation values (Epoch: 2025-10-19T18:40:24.127Z)
Latitude
-0.00004°
Longitude
100.35237°
Altitude
12,360.355 km
Speed
5.327 km/s
True Right ascension
03h 15m 46s
True Declination
0° 00' 00"
Sunlit
Object was in daylight at epoch
Visualization orbit readout
Latitude
Unknown
Longitude
Unknown
Altitude
Unknown
Speed
Unknown
Apparent Right ascension
Unknown
Apparent Declination
Unknown
Sunlit
N/A
Visualization observer readout
Local Sidereal Time
20:47:03
Azimuth
Unknown
Elevation
Unknown
Doppler factor
Unknown
Orbital elements
Apogee altitude
35,014.977 km
Perigee altitude
8,503.594 km
Semi-major axis
28,137.422 km
Eccentricity
0.47111
Inclination
13.0194°
RAAN
48.9749°
Arg. of periapsis
290.7352°
True anomaly
69.54617°
Mean anomaly
26.0507°
Eccentric anomaly
45.20551°
Mean motion
0.45985 °/min
Orbital period
782.86 mins
BSTAR
0
Loading maneuver chart data...
Computing Atmospheric mass density...

Documentation

Showing up to 5 results
|